SCP
0 0 0 0 0 0 0 0 0 0 0 0 0 0 0 0 0 0 0 0 0 0 0 0 0 0 0 -0 -0 0 0 0 0 0 0 0 0 0 0 0 0 0 0
0 0 0 0 0 0 0 0 0 0 0 0 0 0 0 0 0 0 0 0 0 0 0 0 0 0 0 0 0 0 0 0 0 0 0 0 0 0 0 0 0 0 0
0 0 0 0 0 0 0 0 0 0 0 0 0 0 0 0 0 0 0 0 0 0 0 0 0 0 0 0 0 0 0 0 0 0 0 0 0 0 0 0 0 0 0
0 0 0 0 0 0 0 0 0 0 0 0 0 0 0 0 0 0 0 0 0 0 0 0 0 0 0 0 0 0 0 0 0 0 0 0 0 0 0 0 0 0 0
0 0 0 0 0 0 0 0 0 0 0 0 0 0 0 0 0 0 0 0 0 0 0 0 0 0 0 0 0 0 0 0 0 0 0 0 0 0 0 0 0 0 0
0 0 0 0 0 0 0 0 0 0 0 0 0 0 0 0 0 0 0 0 0 0 0 0 0 0 0 0 0 0 0 0 0 0 0 0 0 0 0 0 0 0 0
0 0 0 0 0 0 0 0 0 0 0 0 0 0 0 0 0 0 0 0 0 0 0 0 0 0 0 0 0 0 0 0 0 0 0 0 0 0 0 0 0 0 0
0 0 0 0 0 0 0 0 0 0 0 0 0 -0 0 0 0 0 0 0 0 0 0 0 0 0 0 0 0 0 0 0 0 0 0 0 0 0 0 0 0 0 0
0 0 0 0 0 0 0 0 0 0 0 0 0 -0 0 0 0 0 0 0 0 0 0 0 0 0 0 0 0 0 0 0 0 0 0 0 0 0 0 0 0 0 0
0 0 0 0 0 0 0 0 0 0 0 0 0 0 0 0 0 0 0 0 0 0 0 0 0 0 0 0 0 0 0 0 0 0 0 0 0 0 0 0 0 0 0
0 0 0 0 0 0 0 0 0 0 0 0 0 0 0 0 0 0 0 0 0 0 0 0 0 0 0 0 0 0 0 0 0 0 0 0 0 0 0 0 0 1 1
0 0 0 0 0 0 0 0 0 0 0 0 0 0 0 0 0 0 0 0 0 0 0 0 0 0 0 0 0 0 0 0 0 0 0 0 0 0 0 0 0 0 0
0 0 0 0 0 0 0 0 0 0 0 0 0 0 0 0 0 0 0 0 0 0 0 0 0 0 0 0 0 0 0 0 0 0 0 0 0 0 0 0 0 0 0
0 0 0 0 0 0 0 0 0 0 0 0 0 0 0 0 0 0 0 0 0 0 0 0 0 0 0 0 0 0 0 0 0 0 0 0 0 0 0 0 0 0 0
0 0 0 0 0 0 0 0 0 0 0 0 0 0 0 0 0 0 0 0 0 0 0 0 0 0 0 0 0 0 0 0 0 0 0 0 0 0 0 0 0 0 0
0 0 0 0 0 0 0 0 0 0 0 0 0 0 0 0 0 0 0 0 0 0 0 0 0 0 0 0 0 0 0 0 0 0 0 0 0 0 0 0 0 0 0
0 0 0 0 0 0 0 0 0 0 0 0 0 0 0 0 0 0 0 0 0 0 0 0 0 0 0 0 0 0 0 0 0 0 0 0 0 0 0 0 0 0 0
0 0 0 0 0 0 0 0 0 0 0 0 0 0 0 0 0 0 0 0 0 0 0 0 0 0 0 0 0 0 0 0 0 0 0 0 0 0 0 0 0 0 0
0 0 0 0 0 0 0 0 0 0 0 0 0 0 0 0 0 0 0 0 0 0 0 0 0 0 0 0 0 0 0 0 0 0 0 0 0 0 0 0 0 0 0
0 0 0 0 0 0 0 0 0 0 0 0 0 0 0 0 0 0 0 0 0 0 0 0 0 0 0 0 0 0 0 0 0 0 0 0 0 0 0 0 0 0 0
0 0 0 0 0 0 0 0 0 0 0 0 0 0 0 0 0 0 0 0 0 0 0 0 0 0 0 0 0 0 0 0 0 0 0 0 0 0 0 0 0 0 0
0 0 0 0 0 0 0 0 0 0 0 0 0 0 0 0 0 0 0 0 0 0 0 0 0 0 0 0 0 0 0 0 0 0 0 0 0 0 0 0 0 0 0
0 0 0 0 0 0 0 0 0 0 0 0 0 0 0 0 0 0 0 0 0 0 0 0 0 0 0 0 0 0 0 0 0 0 0 0 0 0 0 0 0 0 0
0 0 0 0 0 0 0 0 0 0 0 0 0 0 0 0 0 0 0 0 0 0 0 0 0 0 0 0 0 0 0 0 0 0 0 0 0 0 0 0 0 0 0
0 0 0 0 0 0 0 0 0 0 0 0 0 0 0 0 0 0 0 0 0 0 0 0 0 0 0 0 0 0 0 0 0 0 0 0 0 0 0 0 0 0 0
0 0 0 0 0 0 0 0 0 0 0 0 0 0 0 0 0 0 0 0 0 0 0 0 0 0 0 0 0 0 0 0 0 0 0 0 0 0 -0 0 0 0 0
Wind_Speed_500mb
15 18 21 23 25 28 30 32 35 38 39 42 44 49 51 52 53 55 56 57 57 55 53 50 53 52 52 54 54 54 54 58 59 58 55 52 47 45 46 46 49 52 55
20 22 24 27 29 31 35 40 42 45 46 50 53 52 54 56 56 56 59 61 61 60 55 50 49 50 52 54 54 54 55 57 59 58 57 54 54 54 52 53 53 53 55
25 28 30 31 31 34 40 45 46 50 50 50 53 54 54 62 59 56 58 59 57 51 45 41 41 40 41 41 48 52 53 50 49 49 50 51 50 52 55 55 59 60 58
31 33 35 32 38 41 43 45 50 50 50 50 52 53 64 57 52 51 48 43 39 40 34 29 32 33 32 35 38 42 42 44 44 46 48 48 48 52 54 55 55 57 58
35 36 36 37 36 38 40 42 42 46 50 55 58 54 52 48 45 37 37 30 28 33 32 27 27 32 38 42 45 44 45 47 53 57 58 60 58 56 56 57 57 58 62
36 35 35 35 31 36 34 40 45 45 47 48 48 47 45 39 33 29 23 30 39 37 37 36 39 41 41 45 46 48 51 51 53 54 58 62 62 62 60 58 58 65 68
32 31 29 29 33 36 36 37 37 36 38 43 44 47 41 37 33 21 41 39 43 43 40 46 48 48 50 48 52 54 54 54 58 64 67 70 72 70 69 64 61 54 27
26 24 23 24 26 28 29 31 34 37 41 47 47 37 27 46 31 60 42 54 47 50 54 52 52 57 57 56 54 55 57 58 63 67 69 69 70 70 70 64 53 51 47
18 20 20 22 24 27 30 34 36 37 40 42 42 28 15 17 55 37 62 48 64 59 60 65 61 60 59 60 62 62 61 62 65 67 68 70 71 69 67 61 55 55 51
15 17 20 22 25 28 30 34 38 40 41 42 42 35 35 36 25 33 23 73 62 70 69 67 64 65 63 63 62 61 62 64 66 67 67 69 69 66 62 60 59 55 47
16 19 21 23 25 29 32 34 35 38 40 39 39 43 45 45 39 38 60 58 88 82 81 79 76 67 61 58 57 58 56 56 58 62 63 64 66 66 61 55 49 35 23
18 19 21 25 28 30 34 37 40 41 41 41 40 40 42 45 48 49 63 83 91 96 95 84 73 66 59 51 47 57 56 58 65 70 71 70 70 68 65 53 46 35 43
14 20 26 30 36 42 45 47 46 44 44 43 42 41 41 41 45 49 53 64 80 102 89 82 47 58 40 51 57 61 68 74 74 69 70 69 68 69 65 56 46 43 46
22 27 33 39 44 46 47 46 46 45 45 44 43 43 43 43 43 46 51 57 83 85 96 52 54 58 38 50 79 86 82 77 76 75 71 68 67 68 61 50 44 35 40
27 34 41 44 44 44 44 43 43 41 41 42 42 43 45 45 44 45 45 47 47 62 107 56 49 75 98 92 87 85 84 80 76 75 73 70 68 67 52 48 45 38 47
34 40 42 43 44 44 41 41 42 42 43 45 47 47 49 50 49 49 49 46 44 52 88 83 101 99 98 98 92 88 84 80 77 72 72 70 66 67 58 51 48 39 42
40 40 41 40 39 40 40 41 42 43 45 45 46 48 50 51 52 53 52 51 51 53 74 106 94 99 99 98 95 89 86 81 78 72 70 70 67 63 60 53 53 56 46
37 36 34 35 35 37 38 38 38 40 43 45 47 48 52 53 53 54 56 56 55 55 64 93 97 101 99 97 98 94 86 78 73 68 67 68 66 63 59 54 54 57 68
31 31 32 33 35 35 35 37 41 44 47 50 52 54 57 59 60 61 60 59 59 60 63 72 96 92 97 93 94 94 94 87 78 69 65 65 64 61 59 54 54 53 52
27 29 32 33 34 37 39 43 47 47 48 48 51 53 55 57 61 62 60 58 57 61 63 68 77 89 84 87 82 86 92 87 94 85 73 62 58 58 58 55 55 54 57
27 28 30 33 36 40 44 45 45 48 50 51 51 53 53 52 54 56 57 56 59 65 70 74 78 84 81 81 76 85 82 85 94 86 48 52 47 45 46 51 55 63 64
27 28 30 34 37 39 41 45 49 50 51 52 53 54 57 61 62 62 63 59 58 64 70 74 80 80 88 76 82 83 84 82 86 69 55 82 63 58 54 48 44 54 66
29 30 32 34 35 37 45 48 49 48 46 48 54 59 61 62 66 68 72 74 72 70 68 70 75 80 88 84 86 93 86 81 90 84 74 87 73 64 51 48 44 47 56
29 31 32 33 37 42 46 48 46 44 46 51 56 59 64 69 72 71 80 87 87 84 81 74 67 76 81 87 72 82 97 98 91 87 71 77 66 62 48 42 41 43 48
31 32 34 36 39 42 43 45 46 47 49 53 59 65 68 75 75 67 80 91 97 94 88 75 72 73 75 78 79 80 81 68 74 66 57 61 54 48 46 38 37 38 41
33 35 36 39 41 41 42 43 46 50 56 63 67 69 73 76 63 71 71 77 89 91 89 96 91 85 78 68 55 55 58 64 67 58 23 24 37 41 29 27 18 29 35
Wind_Direction_500mb
319 318 320 320 323 322 317 312 311 312 313 311 311 311 311 309 311 314 316 317 316 311 306 301 299 296 297 295 298 301 299 297 298 297 297 300 302 301 297 293 290 285 282
314 312 312 317 325 323 322 320 316 314 314 315 315 318 315 314 317 316 315 316 315 311 304 300 301 296 292 292 299 304 303 302 299 300 298 298 299 299 297 294 293 287 283
305 307 310 314 317 317 315 312 313 311 312 310 310 311 313 315 317 318 317 315 313 314 313 306 305 308 307 300 301 304 308 309 306 310 306 302 302 302 300 297 293 289 284
300 303 307 312 313 312 309 310 309 309 307 305 306 309 309 315 320 318 319 322 322 324 325 320 317 319 318 314 309 309 309 311 311 311 309 309 306 303 299 296 292 290 286
304 308 308 306 301 305 307 308 307 308 309 308 309 313 317 321 321 320 322 322 333 334 330 323 312 309 310 311 310 307 305 302 302 303 302 301 302 304 300 298 293 295 282
303 306 308 307 301 306 304 303 306 310 312 313 316 319 322 326 326 321 325 326 322 321 320 313 304 300 302 306 308 306 307 304 303 304 302 302 305 303 302 301 300 294 290
307 313 315 312 311 311 316 318 321 321 321 323 329 328 333 331 328 322 321 317 321 317 318 315 313 311 312 309 310 307 304 299 297 297 297 298 298 299 300 302 299 303 306
315 320 323 322 320 321 325 329 334 336 337 340 344 351 340 336 319 322 327 324 325 323 320 319 317 315 314 312 308 304 301 297 296 293 292 291 293 293 296 299 298 295 282
331 335 337 337 339 337 340 342 343 344 342 343 344 348 334 308 316 325 323 320 323 320 320 317 316 315 315 312 309 307 304 299 296 294 293 291 290 292 292 293 291 289 286
349 350 350 350 351 348 347 350 349 345 344 342 341 335 323 316 316 315 313 319 318 319 315 314 317 318 320 319 318 313 309 306 303 301 298 294 295 295 293 292 291 292 280
358 357 356 357 357 359 358 355 351 345 341 336 333 329 324 322 326 308 314 312 317 315 316 318 319 320 319 315 316 314 312 309 306 303 303 302 299 295 291 287 282 285 231
3 3 7 6 1 353 346 342 339 332 327 325 324 324 325 326 322 319 314 315 314 316 314 316 321 326 326 323 320 312 308 307 304 302 300 297 295 293 290 286 271 250 264
13 5 359 349 343 341 336 332 328 326 324 324 326 326 324 319 317 316 314 314 312 313 316 319 333 330 332 317 318 312 308 307 303 300 298 296 292 291 286 284 267 262 255
0 351 342 336 332 328 326 327 327 327 326 324 323 322 321 317 316 315 315 316 315 310 314 315 325 317 323 317 311 309 308 306 302 300 297 295 290 288 282 278 270 254 260
341 334 331 327 327 329 331 330 330 331 332 332 333 333 331 330 327 323 317 314 309 308 311 311 316 309 311 313 314 312 310 307 303 299 296 294 290 288 279 278 267 256 249
329 328 328 331 332 333 334 336 336 337 338 336 336 334 331 331 330 327 323 318 310 300 295 300 306 309 312 311 312 312 309 306 302 298 294 290 287 285 276 264 261 253 249
328 329 330 331 332 334 338 339 338 339 339 339 337 335 333 332 331 328 324 320 314 306 298 303 305 309 310 310 311 311 309 308 304 301 295 288 283 279 277 258 255 249 235
327 330 333 335 336 337 339 340 341 341 342 341 341 339 337 335 334 331 330 327 323 319 313 308 312 315 316 317 315 314 313 308 305 302 294 287 281 275 269 257 253 250 240
331 335 336 336 338 340 341 344 347 348 348 346 344 343 342 342 342 341 339 335 331 327 322 314 312 316 317 319 318 316 315 312 309 303 296 288 285 279 273 261 250 251 246
332 334 336 338 340 344 347 349 349 346 347 348 348 348 349 347 344 343 340 336 331 327 322 315 311 314 316 318 318 319 315 312 314 312 305 297 286 277 270 263 248 248 244
334 336 340 341 343 344 344 345 346 349 350 352 351 350 348 345 345 342 338 337 333 328 322 316 312 310 311 313 316 321 313 314 314 320 314 307 293 283 275 265 258 237 242
332 337 339 341 342 341 342 347 350 350 350 350 350 351 351 352 349 345 344 340 333 327 324 319 312 308 306 306 308 313 314 308 310 311 305 304 303 292 282 274 266 255 242
329 334 335 336 338 343 347 346 346 346 345 349 352 350 348 345 343 339 336 332 330 328 325 320 312 310 308 311 308 310 309 303 296 302 305 303 306 301 292 279 269 258 248
325 328 330 335 340 345 344 339 338 341 347 348 345 344 340 340 339 338 330 328 327 327 327 320 309 306 307 306 299 298 298 297 296 293 297 294 304 305 302 285 270 260 250
328 325 331 337 341 338 335 335 337 341 340 338 338 338 335 336 337 336 328 328 327 326 325 320 313 307 303 298 298 299 296 296 289 293 294 293 298 307 308 301 279 264 252
324 328 330 334 333 332 333 336 335 336 334 334 334 334 336 335 334 332 330 325 325 328 324 325 324 322 322 322 316 304 302 297 291 299 294 291 300 309 311 313 326 284 259
Wind_Speed_850mb
15 18 21 23 25 28 30 32 35 38 39 42 44 49 51 52 53 55 56 57 57 55 53 50 53 52 52 54 54 54 54 58 59 58 55 52 47 45 46 46 49 52 55
20 22 24 27 29 31 35 40 42 45 46 50 53 52 54 56 56 56 59 61 61 60 55 50 49 50 52 54 54 54 55 57 59 58 57 54 54 54 52 53 53 53 55
25 28 30 31 31 34 40 45 46 50 50 50 53 54 54 62 59 56 58 59 57 51 45 41 41 40 41 41 48 52 53 50 49 49 50 51 50 52 55 55 59 60 58
31 33 35 32 38 41 43 45 50 50 50 50 52 53 64 57 52 51 48 43 39 40 34 29 32 33 32 35 38 42 42 44 44 46 48 48 48 52 54 55 55 57 58
35 36 36 37 36 38 40 42 42 46 50 55 58 54 52 48 45 37 37 30 28 33 32 27 27 32 38 42 45 44 45 47 53 57 58 60 58 56 56 57 57 58 62
36 35 35 35 31 36 34 40 45 45 47 48 48 47 45 39 33 29 23 30 39 37 37 36 39 41 41 45 46 48 51 51 53 54 58 62 62 62 60 58 58 65 68
32 31 29 29 33 36 36 37 37 36 38 43 44 47 41 37 33 21 41 39 43 43 40 46 48 48 50 48 52 54 54 54 58 64 67 70 72 70 69 64 61 54 27
26 24 23 24 26 28 29 31 34 37 41 47 47 37 27 46 31 60 42 54 47 50 54 52 52 57 57 56 54 55 57 58 63 67 69 69 70 70 70 64 53 51 47
18 20 20 22 24 27 30 34 36 37 40 42 42 28 15 17 55 37 62 48 64 59 60 65 61 60 59 60 62 62 61 62 65 67 68 70 71 69 67 61 55 55 51
15 17 20 22 25 28 30 34 38 40 41 42 42 35 35 36 25 33 23 73 62 70 69 67 64 65 63 63 62 61 62 64 66 67 67 69 69 66 62 60 59 55 47
16 19 21 23 25 29 32 34 35 38 40 39 39 43 45 45 39 38 60 58 88 82 81 79 76 67 61 58 57 58 56 56 58 62 63 64 66 66 61 55 49 35 23
18 19 21 25 28 30 34 37 40 41 41 41 40 40 42 45 48 49 63 83 91 96 95 84 73 66 59 51 47 57 56 58 65 70 71 70 70 68 65 53 46 35 43
14 20 26 30 36 42 45 47 46 44 44 43 42 41 41 41 45 49 53 64 80 102 89 82 47 58 40 51 57 61 68 74 74 69 70 69 68 69 65 56 46 43 46
22 27 33 39 44 46 47 46 46 45 45 44 43 43 43 43 43 46 51 57 83 85 96 52 54 58 38 50 79 86 82 77 76 75 71 68 67 68 61 50 44 35 40
27 34 41 44 44 44 44 43 43 41 41 42 42 43 45 45 44 45 45 47 47 62 107 56 49 75 98 92 87 85 84 80 76 75 73 70 68 67 52 48 45 38 47
34 40 42 43 44 44 41 41 42 42 43 45 47 47 49 50 49 49 49 46 44 52 88 83 101 99 98 98 92 88 84 80 77 72 72 70 66 67 58 51 48 39 42
40 40 41 40 39 40 40 41 42 43 45 45 46 48 50 51 52 53 52 51 51 53 74 106 94 99 99 98 95 89 86 81 78 72 70 70 67 63 60 53 53 56 46
37 36 34 35 35 37 38 38 38 40 43 45 47 48 52 53 53 54 56 56 55 55 64 93 97 101 99 97 98 94 86 78 73 68 67 68 66 63 59 54 54 57 68
31 31 32 33 35 35 35 37 41 44 47 50 52 54 57 59 60 61 60 59 59 60 63 72 96 92 97 93 94 94 94 87 78 69 65 65 64 61 59 54 54 53 52
27 29 32 33 34 37 39 43 47 47 48 48 51 53 55 57 61 62 60 58 57 61 63 68 77 89 84 87 82 86 92 87 94 85 73 62 58 58 58 55 55 54 57
27 28 30 33 36 40 44 45 45 48 50 51 51 53 53 52 54 56 57 56 59 65 70 74 78 84 81 81 76 85 82 85 94 86 48 52 47 45 46 51 55 63 64
27 28 30 34 37 39 41 45 49 50 51 52 53 54 57 61 62 62 63 59 58 64 70 74 80 80 88 76 82 83 84 82 86 69 55 82 63 58 54 48 44 54 66
29 30 32 34 35 37 45 48 49 48 46 48 54 59 61 62 66 68 72 74 72 70 68 70 75 80 88 84 86 93 86 81 90 84 74 87 73 64 51 48 44 47 56
29 31 32 33 37 42 46 48 46 44 46 51 56 59 64 69 72 71 80 87 87 84 81 74 67 76 81 87 72 82 97 98 91 87 71 77 66 62 48 42 41 43 48
31 32 34 36 39 42 43 45 46 47 49 53 59 65 68 75 75 67 80 91 97 94 88 75 72 73 75 78 79 80 81 68 74 66 57 61 54 48 46 38 37 38 41
33 35 36 39 41 41 42 43 46 50 56 63 67 69 73 76 63 71 71 77 89 91 89 96 91 85 78 68 55 55 58 64 67 58 23 24 37 41 29 27 18 29 35
Wind_Direction_850mb
319 318 320 320 323 322 317 312 311 312 313 311 311 311 311 309 311 314 316 317 316 311 306 301 299 296 297 295 298 301 299 297 298 297 297 300 302 301 297 293 290 285 282
314 312 312 317 325 323 322 320 316 314 314 315 315 318 315 314 317 316 315 316 315 311 304 300 301 296 292 292 299 304 303 302 299 300 298 298 299 299 297 294 293 287 283
305 307 310 314 317 317 315 312 313 311 312 310 310 311 313 315 317 318 317 315 313 314 313 306 305 308 307 300 301 304 308 309 306 310 306 302 302 302 300 297 293 289 284
300 303 307 312 313 312 309 310 309 309 307 305 306 309 309 315 320 318 319 322 322 324 325 320 317 319 318 314 309 309 309 311 311 311 309 309 306 303 299 296 292 290 286
304 308 308 306 301 305 307 308 307 308 309 308 309 313 317 321 321 320 322 322 333 334 330 323 312 309 310 311 310 307 305 302 302 303 302 301 302 304 300 298 293 295 282
303 306 308 307 301 306 304 303 306 310 312 313 316 319 322 326 326 321 325 326 322 321 320 313 304 300 302 306 308 306 307 304 303 304 302 302 305 303 302 301 300 294 290
307 313 315 312 311 311 316 318 321 321 321 323 329 328 333 331 328 322 321 317 321 317 318 315 313 311 312 309 310 307 304 299 297 297 297 298 298 299 300 302 299 303 306
315 320 323 322 320 321 325 329 334 336 337 340 344 351 340 336 319 322 327 324 325 323 320 319 317 315 314 312 308 304 301 297 296 293 292 291 293 293 296 299 298 295 282
331 335 337 337 339 337 340 342 343 344 342 343 344 348 334 308 316 325 323 320 323 320 320 317 316 315 315 312 309 307 304 299 296 294 293 291 290 292 292 293 291 289 286
349 350 350 350 351 348 347 350 349 345 344 342 341 335 323 316 316 315 313 319 318 319 315 314 317 318 320 319 318 313 309 306 303 301 298 294 295 295 293 292 291 292 280
358 357 356 357 357 359 358 355 351 345 341 336 333 329 324 322 326 308 314 312 317 315 316 318 319 320 319 315 316 314 312 309 306 303 303 302 299 295 291 287 282 285 231
3 3 7 6 1 353 346 342 339 332 327 325 324 324 325 326 322 319 314 315 314 316 314 316 321 326 326 323 320 312 308 307 304 302 300 297 295 293 290 286 271 250 264
13 5 359 349 343 341 336 332 328 326 324 324 326 326 324 319 317 316 314 314 312 313 316 319 333 330 332 317 318 312 308 307 303 300 298 296 292 291 286 284 267 262 255
0 351 342 336 332 328 326 327 327 327 326 324 323 322 321 317 316 315 315 316 315 310 314 315 325 317 323 317 311 309 308 306 302 300 297 295 290 288 282 278 270 254 260
341 334 331 327 327 329 331 330 330 331 332 332 333 333 331 330 327 323 317 314 309 308 311 311 316 309 311 313 314 312 310 307 303 299 296 294 290 288 279 278 267 256 249
329 328 328 331 332 333 334 336 336 337 338 336 336 334 331 331 330 327 323 318 310 300 295 300 306 309 312 311 312 312 309 306 302 298 294 290 287 285 276 264 261 253 249
328 329 330 331 332 334 338 339 338 339 339 339 337 335 333 332 331 328 324 320 314 306 298 303 305 309 310 310 311 311 309 308 304 301 295 288 283 279 277 258 255 249 235
327 330 333 335 336 337 339 340 341 341 342 341 341 339 337 335 334 331 330 327 323 319 313 308 312 315 316 317 315 314 313 308 305 302 294 287 281 275 269 257 253 250 240
331 335 336 336 338 340 341 344 347 348 348 346 344 343 342 342 342 341 339 335 331 327 322 314 312 316 317 319 318 316 315 312 309 303 296 288 285 279 273 261 250 251 246
332 334 336 338 340 344 347 349 349 346 347 348 348 348 349 347 344 343 340 336 331 327 322 315 311 314 316 318 318 319 315 312 314 312 305 297 286 277 270 263 248 248 244
334 336 340 341 343 344 344 345 346 349 350 352 351 350 348 345 345 342 338 337 333 328 322 316 312 310 311 313 316 321 313 314 314 320 314 307 293 283 275 265 258 237 242
332 337 339 341 342 341 342 347 350 350 350 350 350 351 351 352 349 345 344 340 333 327 324 319 312 308 306 306 308 313 314 308 310 311 305 304 303 292 282 274 266 255 242
329 334 335 336 338 343 347 346 346 346 345 349 352 350 348 345 343 339 336 332 330 328 325 320 312 310 308 311 308 310 309 303 296 302 305 303 306 301 292 279 269 258 248
325 328 330 335 340 345 344 339 338 341 347 348 345 344 340 340 339 338 330 328 327 327 327 320 309 306 307 306 299 298 298 297 296 293 297 294 304 305 302 285 270 260 250
328 325 331 337 341 338 335 335 337 341 340 338 338 338 335 336 337 336 328 328 327 326 325 320 313 307 303 298 298 299 296 296 289 293 294 293 298 307 308 301 279 264 252
324 328 330 334 333 332 333 336 335 336 334 334 334 334 336 335 334 332 330 325 325 328 324 325 324 322 322 322 316 304 302 297 291 299 294 291 300 309 311 313 326 284 259